Rayong, Thailand

12:22 AM +07 on June 28, 2017 (GMT +0700)
U-Taphao International

Weather History for VTBU - November, 2012

Change the Weather History Date:

Monday, November 12, 2012

  Actual Average Record
Temperature  
Mean Temperature 82 °F -  
Max Temperature 87 °F 88 °F 94 °F (2016)
Min Temperature 77 °F 75 °F 69 °F (2001)
Cooling Degree Days 17    
Growing Degree Days 32 (Base 50)    
Moisture  
Dew Point 71 °F    
Average Humidity 70    
Maximum Humidity 79    
Minimum Humidity 52    
Precipitation  
Precipitation 0.00 in - - ()
Sea Level Pressure  
Sea Level Pressure 29.85 in    
Wind  
Wind Speed 2 mph ()    
Max Wind Speed 9 mph    
Max Gust Speed -    
Visibility 4.6 miles    
Events Rain , Thunderstorm    
Averages and records for this station are not official NWS values.
T = Trace of Precipitation, MM = Missing Value Source: Averaged Metar Reports

Daily Weather History Graph

Daily Weather History Graph

Search for Another Location

Airport or City:

Trip Planner

Search our weather history database for the weather conditions in past years. The results will help you decide how hot, cold, wet, or windy it might be!

Date:

Astronomy

Nov. 12, 2012 Rise Set
Actual Time 6:11 AM +07 5:45 PM +07
Civil Twilight 5:49 AM +07 6:08 PM +07
Nautical Twilight 5:23 AM +07 6:33 PM +07
Astronomical Twilight 4:58 AM +07 6:59 PM +07
Moon 4:14 AM +07 (11/12) 4:17 PM +07 (11/12)
Length of Visible Light 12h 18m
Length of Day
11h 34m
Waning Crescent, 4% of the Moon is Illuminated
Nov 12
Waning Crescent
Nov 14
New
Nov 20
First Quarter
Nov 28
Full
Dec 6
Last Quarter

Hourly Weather History & Observations

Time (+07) Temp. Heat Index Dew Point Humidity Pressure Visibility Wind Dir Wind Speed Gust Speed Precip Events Conditions
12:00 AM 78.8 °F - 69.8 °F 74% 29.86 in 5.0 mi Calm Calm - N/A   Mostly Cloudy
12:30 AM 78.8 °F - 69.8 °F 74% 29.83 in 5.0 mi Calm Calm - N/A   Mostly Cloudy
1:00 AM 78.8 °F - 69.8 °F 74% 29.83 in 5.0 mi Calm Calm - N/A   Mostly Cloudy
1:30 AM 78.8 °F - 71.6 °F 78% 29.80 in 5.0 mi Calm Calm - N/A   Mostly Cloudy
2:00 AM 78.8 °F - 69.8 °F 74% 29.80 in 5.0 mi Calm Calm - N/A   Mostly Cloudy
2:30 AM 78.8 °F - 69.8 °F 74% 29.80 in 5.0 mi Calm Calm - N/A Thunderstorm Thunderstorm
3:00 AM 78.8 °F - 69.8 °F 74% 29.80 in 5.0 mi Calm Calm - N/A Thunderstorm Thunderstorm
3:30 AM 78.8 °F - 71.6 °F 78% 29.80 in 5.0 mi Calm Calm - N/A Thunderstorm Thunderstorm
4:30 AM 78.8 °F - 71.6 °F 78% 29.80 in 5.0 mi Calm Calm - N/A Thunderstorm Thunderstorm
5:00 AM 78.8 °F - 71.6 °F 78% 29.80 in 4.3 mi East 9.2 mph - N/A Rain , Thunderstorm Light Thunderstorms and Rain
5:30 AM 77.0 °F - 68.0 °F 74% 29.80 in 3.7 mi NNE 6.9 mph - N/A Rain , Thunderstorm Light Thunderstorms and Rain
6:00 AM 77.0 °F - 68.0 °F 74% 29.80 in 3.7 mi NNW 4.6 mph - N/A Rain , Thunderstorm Light Thunderstorms and Rain
6:30 AM 77.0 °F - 69.8 °F 78% 29.83 in 3.7 mi North 4.6 mph - N/A Rain , Thunderstorm Light Thunderstorms and Rain
7:00 AM 77.0 °F - 69.8 °F 78% 29.83 in 3.7 mi Calm Calm - N/A   Mostly Cloudy
7:30 AM 78.8 °F - 69.8 °F 74% 29.86 in 4.3 mi Calm Calm - N/A   Mostly Cloudy
8:00 AM 77.0 °F - 69.8 °F 78% 29.86 in 1.2 mi ESE 9.2 mph - N/A Rain , Thunderstorm Thunderstorms and Rain
8:30 AM 78.8 °F - 71.6 °F 78% 29.89 in 3.1 mi Calm Calm - N/A Rain , Thunderstorm Light Thunderstorms and Rain
9:00 AM 78.8 °F - 71.6 °F 78% 29.92 in 5.0 mi NNW 3.5 mph - N/A Thunderstorm Thunderstorm
9:30 AM 80.6 °F 84.6 °F 71.6 °F 74% 29.92 in 3.1 mi NE 3.5 mph - N/A Rain , Thunderstorm Light Thunderstorms and Rain
10:00 AM 84.2 °F 90.9 °F 73.4 °F 70% 29.92 in 4.3 mi North 6.9 mph - N/A Thunderstorm Thunderstorm
10:30 AM 86.0 °F 91.8 °F 71.6 °F 62% 29.92 in 5.0 mi Calm Calm - N/A   Mostly Cloudy
11:00 AM 86.0 °F 91.8 °F 71.6 °F 62% 29.89 in 5.6 mi Calm Calm - N/A   Mostly Cloudy
11:30 AM 86.0 °F 91.8 °F 71.6 °F 62% 29.89 in 5.6 mi Calm Calm - N/A   Mostly Cloudy
12:00 PM 86.0 °F 91.8 °F 71.6 °F 62% 29.89 in 5.6 mi Calm Calm - N/A   Mostly Cloudy
12:30 PM 86.0 °F 89.4 °F 68.0 °F 55% 29.89 in 5.6 mi Calm Calm - N/A   Mostly Cloudy
1:00 PM 86.0 °F 89.4 °F 68.0 °F 55% 29.86 in 5.6 mi Calm Calm - N/A   Mostly Cloudy
1:30 PM 86.0 °F 89.4 °F 68.0 °F 55% 29.86 in 5.6 mi Calm Calm - N/A   Mostly Cloudy
2:00 PM 87.8 °F 92.6 °F 69.8 °F 55% 29.83 in 5.6 mi Calm Calm - N/A   Mostly Cloudy
2:30 PM 87.8 °F 92.6 °F 69.8 °F 55% 29.83 in 5.6 mi Calm Calm - N/A   Mostly Cloudy
3:00 PM 87.8 °F 91.4 °F 68.0 °F 52% 29.83 in 5.6 mi Calm Calm - N/A   Mostly Cloudy
3:30 PM 87.8 °F 92.6 °F 69.8 °F 55% 29.80 in 5.6 mi Calm Calm - N/A   Mostly Cloudy
4:00 PM 87.8 °F 93.8 °F 71.6 °F 58% 29.80 in 5.6 mi WSW 3.5 mph - N/A   Mostly Cloudy
4:30 PM 86.0 °F 93.4 °F 73.4 °F 66% 29.80 in 5.6 mi WSW 3.5 mph - N/A   Mostly Cloudy
5:00 PM 86.0 °F 93.4 °F 73.4 °F 66% 29.83 in 5.0 mi NW 5.8 mph - N/A   Mostly Cloudy
5:30 PM 84.2 °F 90.9 °F 73.4 °F 70% 29.83 in 5.0 mi WSW 3.5 mph - N/A   Mostly Cloudy
6:00 PM 84.2 °F 90.9 °F 73.4 °F 70% 29.83 in 4.3 mi NW 5.8 mph - N/A   Mostly Cloudy
7:00 PM 82.4 °F 88.2 °F 73.4 °F 74% 29.83 in 4.3 mi NNE 3.5 mph - N/A   Mostly Cloudy
7:30 PM 82.4 °F 88.2 °F 73.4 °F 74% 29.86 in 4.3 mi NE 3.5 mph - N/A   Mostly Cloudy
8:00 PM 82.4 °F 88.2 °F 73.4 °F 74% 29.86 in 4.3 mi NE 3.5 mph - N/A   Mostly Cloudy
8:30 PM 82.4 °F 88.2 °F 73.4 °F 74% 29.89 in 4.3 mi NNE 3.5 mph - N/A   Mostly Cloudy
9:00 PM 82.4 °F 88.2 °F 73.4 °F 74% 29.89 in 4.3 mi North 2.3 mph - N/A   Mostly Cloudy
9:30 PM 82.4 °F 88.2 °F 73.4 °F 74% 29.89 in 4.3 mi NE 3.5 mph - N/A   Mostly Cloudy
10:00 PM 82.4 °F 88.2 °F 73.4 °F 74% 29.92 in 4.3 mi NNE 2.3 mph - N/A   Mostly Cloudy
10:30 PM 82.4 °F 88.2 °F 73.4 °F 74% 29.92 in 4.3 mi NE 3.5 mph - N/A   Mostly Cloudy
11:00 PM 82.4 °F 88.2 °F 73.4 °F 74% 29.92 in 3.7 mi NE 3.5 mph - N/A   Mostly Cloudy
11:30 PM 80.6 °F 85.4 °F 73.4 °F 79% 29.92 in 3.7 mi NNE 3.5 mph - N/A   Mostly Cloudy